{"data":{"norad_id":59803,"intl_designator":"2024-093X","name":"STARLINK-31794","alt_names":[],"object_type":"PAYLOAD","status":"ACTIVE","operator":null,"country":"US","launch_date":"2024-05-18","launch_site_code":"AFETR","launch_vehicle":null,"mission":null,"orbit_class":"UNKNOWN","rcs_meters":null,"size_class":null,"mass_kg":null,"dimensions":null,"purposes":["comms"],"wikipedia_slug":null,"has_3d_model":false,"image_url":null,"decayed_at":null,"tle_current":{"epoch":"2026-09-21T03:22:06.481920Z","epoch_age_seconds":119176,"freshness":"FRESH","line1":"1 59803U 24093X   26264.14035280  .00000224  00000+0  17644-4 0  9999","line2":"2 59803  42.9979 185.3855 0000965 276.0452  84.0290 15.27580246132658","mean_motion":15.27580246,"eccentricity":9.65e-5,"inclination_deg":42.9979,"raan_deg":185.3855,"arg_perigee_deg":276.0452,"mean_anomaly_deg":84.029,"bstar":1.7644e-5,"rev_number":13265,"period_min":94.266733533028,"perigee_km":482.38625504007,"apogee_km":483.71046381444,"semimajor_km":6861.1853594273,"source":"CELESTRAK","updated_at":"2026-09-22T09:00:49.075182Z"}}}